Weather History for Galveston, TX

Change the Weather History Date:

Thursday, April 11, 2013

  Actual Average Record
Temperature  
Mean Temperature 58 °F 69 °F  
Max Temperature 67 °F 75 °F 87 °F (2011)
Min Temperature 48 °F 63 °F 41 °F (1928)
Degree Days  
Heating Degree Days 7 1  
Month to date heating degree days 23 11  
Since 1 July heating degree days 733 1002  
Cooling Degree Days 0 5  
Month to date cooling degree days 37 45  
Year to date cooling degree days 141 115  
Growing Degree Days 7 (Base 50)    
Moisture  
Dew Point 51 °F    
Average Humidity 75    
Maximum Humidity 93    
Minimum Humidity 56    
Precipitation  
Precipitation 1.08 in 0.13 in 1.96 in (1884)
Month to date precipitation 2.42 1.18  
Year to date precipitation 12.56 11.11  
Snow  
Snow 0.00 in - - ()
Month to date snowfall 0.0  
Since 1 July snowfall 0.0  
Snow Depth 0.00 in    
Sea Level Pressure  
Sea Level Pressure 29.84 in    
Wind  
Wind Speed 14 mph (NNW)    
Max Wind Speed 35 mph    
Max Gust Speed 41 mph    
Visibility 8 miles    
Events Rain , Thunderstorm    
T = Trace of Precipitation, MM = Missing Value Source: NWS Daily Summary

Daily Weather History Graph

Daily Weather History Graph

Search for Another Location

Airport:

Trip Planner

Search our weather history database for the weather conditions in past years. The results will help you decide how hot, cold, wet, or windy it might be!

Date:

Astronomy

Apr. 11, 2013 Rise Set
Actual Time 6:57 AM CDT 7:43 PM CDT
Civil Twilight 6:33 AM CDT 8:08 PM CDT
Nautical Twilight 6:04 AM CDT 8:36 PM CDT
Astronomical Twilight 5:35 AM CDT 9:05 PM CDT
Moon 7:36 AM CDT (4/11) 9:10 PM CDT (4/11)
Length of Visible Light 13h 34m
Length of Day
12h 46m
New Moon, 2% of the Moon is Illuminated
Apr 11
New Moon
Apr 18
First Quarter
Apr 25
Full
May 2
Last Quarter
May 9
New

Hourly Weather History & Observations

Time (CDT) Temp. Dew Point Humidity Pressure Visibility Wind Dir Wind Speed Gust Speed Precip Events Conditions
12:52 AM 55.0 °F 54.0 °F 96% 29.81 in 10.0 mi North 27.6 mph 34.5 mph N/A   Overcast
1:03 AM 55.4 °F 53.6 °F 94% 29.82 in 6.0 mi NNW 21.9 mph - N/A Thunderstorm Overcast
1:21 AM 53.6 °F 53.6 °F 100% 29.81 in 4.0 mi North 24.2 mph 31.1 mph N/A   Overcast
1:32 AM 53.6 °F 53.6 °F 100% 29.82 in 5.0 mi NNW 27.6 mph 34.5 mph 0.01 in Thunderstorm Overcast
1:42 AM 53.6 °F 51.8 °F 94% 29.83 in 4.0 mi NNW 24.2 mph 36.8 mph 0.04 in Thunderstorm Overcast
1:52 AM 53.1 °F 52.0 °F 96% 29.82 in 6.0 mi NNW 25.3 mph 35.7 mph 0.04 in Thunderstorm Overcast
2:12 AM 53.6 °F 53.6 °F 100% 29.81 in 5.0 mi North 27.6 mph 33.4 mph 0.01 in   Overcast
2:45 AM 53.6 °F 51.8 °F 94% 29.79 in 7.0 mi North 34.5 mph 41.4 mph 0.06 in Thunderstorm Thunderstorm
2:52 AM 53.1 °F 52.0 °F 96% 29.78 in 6.0 mi North 31.1 mph 41.4 mph 0.06 in Thunderstorm Overcast
3:49 AM 51.8 °F 51.8 °F 100% 29.78 in 9.0 mi NNW 27.6 mph 38.0 mph 0.17 in Thunderstorm Overcast
3:52 AM 52.0 °F 51.1 °F 97% 29.78 in 10.0 mi NNW 26.5 mph 38.0 mph 0.17 in Rain , Thunderstorm Light Rain
3:56 AM 51.8 °F 51.8 °F 100% 29.77 in 9.0 mi NNW 25.3 mph 34.5 mph 0.01 in Rain Light Rain
4:22 AM 51.8 °F 51.8 °F 100% 29.79 in 5.0 mi NNW 20.7 mph 29.9 mph 0.08 in Rain , Thunderstorm Thunderstorms and Rain
4:52 AM 51.1 °F 51.1 °F 100% 29.79 in 3.0 mi NNW 24.2 mph 33.4 mph 0.34 in Rain , Thunderstorm Heavy Thunderstorms and Rain
5:14 AM 50.0 °F 48.2 °F 94% 29.82 in 3.0 mi NW 24.2 mph 28.8 mph 0.11 in Rain , Thunderstorm Heavy Rain
5:33 AM 50.0 °F 48.2 °F 94% 29.82 in 5.0 mi NW 25.3 mph 32.2 mph 0.20 in Rain , Thunderstorm Light Rain
5:48 AM 48.2 °F 48.2 °F 100% 29.84 in 10.0 mi NW 23.0 mph 36.8 mph 0.20 in Rain Light Rain
5:52 AM 48.9 °F 48.9 °F 100% 29.84 in 10.0 mi NW 29.9 mph 36.8 mph 0.20 in Rain , Thunderstorm Light Rain
6:13 AM 48.2 °F 48.2 °F 100% 29.84 in 10.0 mi NNW 25.3 mph 32.2 mph 0.01 in Rain , Thunderstorm Light Rain
6:39 AM 48.2 °F 48.2 °F 100% 29.82 in 10.0 mi NNW 28.8 mph 33.4 mph 0.05 in Rain Light Rain
6:52 AM 48.9 °F 48.0 °F 97% 29.84 in 8.0 mi NW 26.5 mph 33.4 mph 0.07 in Rain Light Rain
7:27 AM 48.2 °F 46.4 °F 93% 29.88 in 10.0 mi NNW 20.7 mph 31.1 mph 0.00 in   Overcast
7:52 AM 48.9 °F 46.0 °F 90% 29.88 in 10.0 mi NW 26.5 mph 35.7 mph 0.00 in Rain Light Rain
8:52 AM 50.0 °F 48.0 °F 93% 29.86 in 10.0 mi NNW 23.0 mph - 0.01 in Rain Light Rain
9:10 AM 48.2 °F 46.4 °F 93% 29.91 in 4.0 mi NNW 19.6 mph - 0.10 in Rain , Thunderstorm Heavy Thunderstorms and Rain
9:49 AM 50.0 °F 48.2 °F 94% 29.86 in 10.0 mi North 17.3 mph 23.0 mph 0.16 in Rain Light Rain
9:52 AM 50.0 °F 48.2 °F 94% 29.86 in 10.0 mi NNE 15.0 mph 23.0 mph N/A Rain Light Rain
10:18 AM 50.0 °F 48.2 °F 94% 29.85 in 10.0 mi NE 12.7 mph - 0.02 in Rain Light Rain
10:36 AM 51.8 °F 51.8 °F 100% 29.88 in 10.0 mi North 12.7 mph - 0.02 in   Mostly Cloudy
10:52 AM 54.0 °F 52.0 °F 93% 29.88 in 10.0 mi North 15.0 mph - 0.02 in   Partly Cloudy
11:16 AM 55.4 °F 51.8 °F 88% 29.89 in 10.0 mi NNW 17.3 mph - 0.01 in   Mostly Cloudy
11:52 AM 55.0 °F 51.1 °F 86% 29.89 in 10.0 mi NNW 15.0 mph - 0.01 in   Mostly Cloudy
12:37 PM 57.2 °F 51.8 °F 82% 29.89 in 10.0 mi North 15.0 mph - N/A   Scattered Clouds
12:52 PM 57.9 °F 51.1 °F 78% 29.88 in 10.0 mi North 11.5 mph - N/A   Scattered Clouds
1:52 PM 61.0 °F 52.0 °F 72% 29.86 in 10.0 mi NNW 10.4 mph - N/A   Clear
2:52 PM 64.9 °F 52.0 °F 63% 29.84 in 10.0 mi North 11.5 mph - N/A   Clear
3:52 PM 64.9 °F 53.1 °F 65% 29.82 in 10.0 mi North 8.1 mph - N/A   Clear
4:52 PM 66.0 °F 50.0 °F 56% 29.81 in 10.0 mi North 9.2 mph - N/A   Clear
5:52 PM 66.9 °F 51.1 °F 57% 29.80 in 10.0 mi NNE 4.6 mph - N/A   Clear
6:52 PM 66.0 °F 51.1 °F 59% 29.80 in 10.0 mi NNE 4.6 mph - N/A   Clear
7:52 PM 64.0 °F 51.1 °F 63% 29.81 in 10.0 mi Calm Calm - N/A   Clear
8:52 PM 64.0 °F 50.0 °F 60% 29.84 in 10.0 mi Calm Calm - N/A   Clear
9:52 PM 63.0 °F 52.0 °F 67% 29.86 in 10.0 mi Calm Calm - N/A   Clear
10:52 PM 63.0 °F 52.0 °F 67% 29.88 in 10.0 mi North 8.1 mph - N/A   Clear
11:52 PM 62.1 °F 52.0 °F 70% 29.89 in 10.0 mi NE 6.9 mph - N/A   Clear